Change the Weather History Date:

Friday, March 14, 2014

  Actual Average Record
Temperature  
Mean Temperature 53 °F 44 °F  
Max Temperature 64 °F 55 °F 82 °F (1935)
Min Temperature 42 °F 33 °F 6 °F (1897)
Degree Days  
Heating Degree Days 12 21  
Month to date heating degree days 407 335  
Since 1 July heating degree days 4973 4380  
Cooling Degree Days 0 0  
Month to date cooling degree days 0 0  
Year to date cooling degree days 0 0  
Growing Degree Days 5 (Base 50)    
Moisture  
Dew Point 22 °F    
Average Humidity 30    
Maximum Humidity 42    
Minimum Humidity 17    
Precipitation  
Precipitation 0.00 in 0.08 in 2.56 in (2001)
Month to date precipitation 0.73 0.94  
Year to date precipitation 2.48 3.47  
Snow  
Snow 0.00 in 0.10 in 5.80 in (1960)
Month to date snowfall 3.1 1.2  
Since 1 July snowfall 25.7 17.4  
Snow Depth 0.00 in    
Sea Level Pressure  
Sea Level Pressure 29.87 in    
Wind  
Wind Speed 13 mph (West)    
Max Wind Speed 29 mph    
Max Gust Speed 34 mph    
Visibility 10 miles    
Events      
T = Trace of Precipitation, MM = Missing Value Source: NWS Daily Summary

Daily Weather History Graph

Daily Weather History Graph

Search for Another Location

Airport or City:

Trip Planner

Search our weather history database for the weather conditions in past years. The results will help you decide how hot, cold, wet, or windy it might be!

Date:

Astronomy

Mar. 14, 2014 Rise Set
Actual Time 7:31 AM CDT 7:24 PM CDT
Civil Twilight 7:05 AM CDT 7:51 PM CDT
Nautical Twilight 6:34 AM CDT 8:22 PM CDT
Astronomical Twilight 6:02 AM CDT 8:54 PM CDT
Moon 5:48 PM CDT (3/14) 6:11 AM CDT (3/14)
Length of Visible Light 12h 46m
Length of Day
11h 53m
Waxing Gibbous, 96% of the Moon is Illuminated
Mar 14
Waxing Gibbous
Mar 16
Full
Mar 23
Last Quarter
Mar 30
New
Apr 7
First Quarter

Hourly Weather History & Observations

Time (CDT) Temp. Windchill Dew Point Humidity Pressure Visibility Wind Dir Wind Speed Gust Speed Precip Events Conditions
12:53 AM 53.1 °F - 19.9 °F 27% 29.78 in 10.0 mi SSW 23.0 mph 29.9 mph N/A   Scattered Clouds
1:53 AM 53.1 °F - 21.0 °F 29% 29.76 in 10.0 mi SSW 18.4 mph 26.5 mph N/A   Scattered Clouds
2:53 AM 53.1 °F - 21.0 °F 29% 29.74 in 10.0 mi SSW 21.9 mph 32.2 mph N/A   Mostly Cloudy
3:53 AM 53.1 °F - 21.0 °F 29% 29.71 in 10.0 mi SSW 20.7 mph 29.9 mph N/A   Mostly Cloudy
4:53 AM 51.1 °F - 21.9 °F 32% 29.70 in 10.0 mi SSW 20.7 mph - N/A   Mostly Cloudy
5:53 AM 50.0 °F - 23.0 °F 35% 29.74 in 10.0 mi WSW 16.1 mph 25.3 mph N/A   Scattered Clouds
6:53 AM 50.0 °F - 23.0 °F 35% 29.76 in 10.0 mi SW 15.0 mph - N/A   Mostly Cloudy
7:53 AM 46.9 °F - 24.1 °F 41% 29.79 in 10.0 mi SW 9.2 mph - N/A   Mostly Cloudy
8:53 AM 50.0 °F - 24.1 °F 36% 29.82 in 10.0 mi West 10.4 mph - N/A   Mostly Cloudy
9:53 AM 51.1 °F - 27.0 °F 39% 29.87 in 10.0 mi NNW 13.8 mph - N/A   Mostly Cloudy
10:53 AM 50.0 °F - 28.0 °F 43% 29.90 in 10.0 mi NNW 13.8 mph - N/A   Mostly Cloudy
11:53 AM 57.9 °F - 26.1 °F 30% 29.91 in 10.0 mi NNW 17.3 mph 24.2 mph N/A   Scattered Clouds
12:53 PM 60.1 °F - 26.1 °F 27% 29.93 in 10.0 mi NW 13.8 mph - N/A   Partly Cloudy
1:53 PM 61.0 °F - 23.0 °F 23% 29.93 in 10.0 mi NW 20.7 mph 25.3 mph N/A   Partly Cloudy
2:53 PM 63.0 °F - 21.0 °F 20% 29.92 in 10.0 mi NW 11.5 mph 23.0 mph N/A   Partly Cloudy
3:53 PM 63.0 °F - 18.0 °F 18% 29.92 in 10.0 mi NW 18.4 mph 31.1 mph N/A   Partly Cloudy
4:53 PM 63.0 °F - 19.0 °F 18% 29.93 in 10.0 mi NNW 11.5 mph 20.7 mph N/A   Partly Cloudy
5:53 PM 61.0 °F - 18.0 °F 19% 29.93 in 10.0 mi WNW 13.8 mph - N/A   Partly Cloudy
6:53 PM 59.0 °F - 19.0 °F 21% 29.95 in 10.0 mi WNW 10.4 mph - N/A   Partly Cloudy
7:53 PM 55.9 °F - 18.0 °F 23% 29.96 in 10.0 mi West 3.5 mph - N/A   Partly Cloudy
8:53 PM 54.0 °F - 18.0 °F 24% 29.98 in 10.0 mi WSW 4.6 mph - N/A   Clear
9:53 PM 51.1 °F - 19.0 °F 28% 29.99 in 10.0 mi WSW 3.5 mph - N/A   Clear
10:53 PM 46.9 °F - 19.9 °F 34% 30.01 in 10.0 mi SW 4.6 mph - N/A   Clear
11:53 PM 45.0 °F 41.8 °F 19.9 °F 37% 29.99 in 10.0 mi South 5.8 mph - N/A   Clear